This demonstration page uses our WeatherBlox Daily Observations layout. Learn more.

Left ArrowRight Arrow

Hourly Observations for November 15, 2020

Temp ( °F °C ) Dew Point ( °F °C ) Humidity (%) Winds ( mph kmh ) Pressure ( in mb ) Visibility ( mi km ) Precip ( " mm )
12:54 am 00:54 Mostly Clear 41 5 33 0.6 73 73 W 18 30 29.78 1008 10 16.0934 0 0
1:54 am 01:54 Clear 40 4.4 30 -1.1 68 68 WNW 23 37 29.81 1010 10 16.0934 0 0
2:54 am 02:54 Clear 39 3.9 28 -2.2 65 65 WNW 18 30 29.86 1011 10 16.0934 0 0
3:54 am 03:54 Clear 39 3.9 28 -2.2 65 65 WNW 16 26 29.89 1012 10 16.0934 0 0
4:54 am 04:54 Clear 38 3.3 28 -2.2 68 68 WNW 20 31 29.91 1013 10 16.0934 0 0
5:54 am 05:54 Clear 38 3.3 26 -3.3 62 62 W 18 30 29.94 1014 10 16.0934 0 0
6:54 am 06:54 Clear 38 3.3 26 -3.3 62 62 W 18 30 29.95 1014 10 16.0934 0 0
7:54 am 07:54 Sunny 38 3.3 24 -4.4 57 57 W 16 26 29.99 1016 10 16.0934 0 0
8:54 am 08:54 Sunny 40 4.4 25 -3.9 55 55 W 18 30 30.02 1017 10 16.0934 0 0
9:54 am 09:54 Sunny 44 6.7 22 -5.6 41 41 W 23 37 30.04 1017 10 16.0934 0 0
10:54 am 10:54 Sunny 47 8.3 22 -5.6 37 37 WNW 22 35 30.06 1018 10 16.0934 0 0
11:54 am 11:54 Sunny 49 9.4 23 -5 36 36 WNW 21 33 30.07 1018 10 16.0934 0 0
12:54 pm 12:54 Sunny 51 10.6 21 -6.1 31 31 WNW 18 30 30.07 1018 10 16.0934 0 0
1:54 pm 13:54 Sunny 51 10.6 18 -7.8 27 27 NW 18 30 30.08 1019 10 16.0934 0 0
2:54 pm 14:54 Sunny 52 11.1 19 -7.2 27 27 WNW 15 24 30.09 1019 10 16.0934 0 0
3:54 pm 15:54 Sunny 51 10.6 18 -7.8 27 27 W 15 24 30.11 1020 10 16.0934 0 0
4:54 pm 16:54 Sunny 49 9.4 17 -8.3 28 28 W 7 11 30.11 1020 10 16.0934 0 0
5:54 pm 17:54 Clear 39 3.9 19 -7.2 45 45 SW 5 7 30.12 1020 10 16.0934 0 0
6:54 pm 18:54 Clear 38 3.3 20 -6.7 48 48 Calm 30.14 1021 10 16.0934 0 0
7:54 pm 19:54 Clear 35 1.7 19 -7.2 52 52 Calm 30.14 1021 10 16.0934 0 0
8:54 pm 20:54 Clear 33 0.6 19 -7.2 56 56 Calm 30.15 1021 10 16.0934 0 0
9:54 pm 21:54 Clear 30 -1.1 19 -7.2 64 64 S 3 6 30.15 1021 10 16.0934 0 0
10:54 pm 22:54 Clear 30 -1.1 20 -6.7 66 66 SSE 5 7 30.14 1021 10 16.0934 0 0
11:54 pm 23:54 Clear 29 -1.7 20 -6.7 69 69 Calm 30.13 1020 10 16.0934 0 0

Powered by AerisWeather